Year,Month,Day,Hour,Minute,Value (Times are PST for temperature in C)
2017,08,19,00,00,12.90
2017,08,19,00,01,12.90
2017,08,19,00,02,12.90
2017,08,19,00,03,12.90
2017,08,19,00,04,12.90
2017,08,19,00,05,12.90
2017,08,19,00,06,12.90
2017,08,19,00,07,12.90
2017,08,19,00,08,12.90
2017,08,19,00,09,12.90
2017,08,19,00,10,12.90
2017,08,19,00,11,12.90
2017,08,19,00,12,12.90
2017,08,19,00,13,12.90
2017,08,19,00,14,13.00
2017,08,19,00,15,13.00
2017,08,19,00,16,13.00
2017,08,19,00,17,13.00
2017,08,19,00,18,13.10
2017,08,19,00,19,13.10
2017,08,19,00,20,13.10
2017,08,19,00,21,13.10
2017,08,19,00,22,13.10
2017,08,19,00,23,13.00
2017,08,19,00,24,13.00
2017,08,19,00,25,13.00
2017,08,19,00,26,13.00
2017,08,19,00,27,13.00
2017,08,19,00,28,13.00
2017,08,19,00,29,13.00
2017,08,19,00,30,13.10
2017,08,19,00,31,13.10
2017,08,19,00,32,13.10
2017,08,19,00,33,13.10
2017,08,19,00,34,13.10
2017,08,19,00,35,13.10
2017,08,19,00,36,13.10
2017,08,19,00,37,13.10
2017,08,19,00,38,13.10
2017,08,19,00,39,13.20
2017,08,19,00,40,13.20
2017,08,19,00,41,13.20
2017,08,19,00,42,13.20
2017,08,19,00,43,13.20
2017,08,19,00,44,13.20
2017,08,19,00,45,13.20
2017,08,19,00,46,13.20
2017,08,19,00,47,13.20
2017,08,19,00,48,13.20
2017,08,19,00,49,13.20
2017,08,19,00,50,13.20
2017,08,19,00,51,13.20
2017,08,19,00,52,13.20
2017,08,19,00,53,13.30
2017,08,19,00,54,13.30
2017,08,19,00,55,13.30
2017,08,19,00,56,13.30
2017,08,19,00,57,13.30
2017,08,19,00,58,13.30
2017,08,19,00,59,13.30
2017,08,19,01,00,13.30
2017,08,19,01,01,13.30
2017,08,19,01,02,13.30
2017,08,19,01,03,13.30
2017,08,19,01,04,13.30
2017,08,19,01,05,13.30
2017,08,19,01,06,13.30
2017,08,19,01,07,13.30
2017,08,19,01,08,13.30
2017,08,19,01,09,13.30
2017,08,19,01,10,13.30
2017,08,19,01,11,13.30
2017,08,19,01,12,13.40
2017,08,19,01,13,13.40
2017,08,19,01,14,13.40
2017,08,19,01,15,13.40
2017,08,19,01,16,13.40
2017,08,19,01,17,13.40
2017,08,19,01,18,13.40
2017,08,19,01,19,13.40
2017,08,19,01,20,13.40
2017,08,19,01,21,13.40
2017,08,19,01,22,13.40
2017,08,19,01,23,13.40
2017,08,19,01,24,13.40
2017,08,19,01,25,13.40
2017,08,19,01,26,13.40
2017,08,19,01,27,13.40
2017,08,19,01,28,13.40
2017,08,19,01,29,13.40
2017,08,19,01,30,13.40
2017,08,19,01,31,13.40
2017,08,19,01,32,13.40
2017,08,19,01,33,13.40
2017,08,19,01,34,13.40
2017,08,19,01,35,13.50
2017,08,19,01,36,13.50
2017,08,19,01,37,13.50
2017,08,19,01,38,13.50
2017,08,19,01,39,13.50
2017,08,19,01,40,13.50
2017,08,19,01,41,13.50
2017,08,19,01,42,13.50
2017,08,19,01,43,13.50
2017,08,19,01,44,13.50
2017,08,19,01,45,13.50
2017,08,19,01,46,13.50
2017,08,19,01,47,13.50
2017,08,19,01,48,13.50
2017,08,19,01,49,13.50
2017,08,19,01,50,13.50
2017,08,19,01,51,13.50
2017,08,19,01,52,13.50
2017,08,19,01,53,13.50
2017,08,19,01,54,13.50
2017,08,19,01,55,13.60
2017,08,19,01,56,13.60
2017,08,19,01,57,13.60
2017,08,19,01,58,13.60
2017,08,19,01,59,13.60
2017,08,19,02,00,13.60
2017,08,19,02,01,13.60
2017,08,19,02,02,13.60
2017,08,19,02,03,13.60
2017,08,19,02,04,13.60
2017,08,19,02,05,13.60
2017,08,19,02,06,13.60
2017,08,19,02,07,13.60
2017,08,19,02,08,13.60
2017,08,19,02,09,13.60
2017,08,19,02,10,13.60
2017,08,19,02,11,13.60
2017,08,19,02,12,13.60
2017,08,19,02,13,13.60
2017,08,19,02,14,13.60
2017,08,19,02,15,13.60
2017,08,19,02,16,13.60
2017,08,19,02,17,13.60
2017,08,19,02,18,13.60
2017,08,19,02,19,13.60
2017,08,19,02,20,13.60
2017,08,19,02,21,13.60
2017,08,19,02,22,13.60
2017,08,19,02,23,13.60
2017,08,19,02,24,13.60
2017,08,19,02,25,13.60
2017,08,19,02,26,13.60
2017,08,19,02,27,13.60
2017,08,19,02,28,13.60
2017,08,19,02,29,13.60
2017,08,19,02,30,13.60
2017,08,19,02,31,13.60
2017,08,19,02,32,13.60
2017,08,19,02,33,13.60
2017,08,19,02,34,13.60
2017,08,19,02,35,13.60
2017,08,19,02,36,13.60
2017,08,19,02,37,13.60
2017,08,19,02,38,13.60
2017,08,19,02,39,13.60
2017,08,19,02,40,13.60
2017,08,19,02,41,13.60
2017,08,19,02,42,13.60
2017,08,19,02,43,13.60
2017,08,19,02,44,13.60
2017,08,19,02,45,13.60
2017,08,19,02,46,13.60
2017,08,19,02,47,13.60
2017,08,19,02,48,13.60
2017,08,19,02,49,13.60
2017,08,19,02,50,13.60
2017,08,19,02,51,13.60
2017,08,19,02,52,13.60
2017,08,19,02,53,13.60
2017,08,19,02,54,13.60
2017,08,19,02,55,13.60
2017,08,19,02,56,13.60
2017,08,19,02,57,13.60
2017,08,19,02,58,13.60
2017,08,19,02,59,13.60
2017,08,19,03,00,13.60
2017,08,19,03,01,13.60
2017,08,19,03,02,13.60
2017,08,19,03,03,13.60
2017,08,19,03,04,13.60
2017,08,19,03,05,13.60
2017,08,19,03,06,13.60
2017,08,19,03,07,13.60
2017,08,19,03,08,13.60
2017,08,19,03,09,13.60
2017,08,19,03,10,13.60
2017,08,19,03,11,13.60
2017,08,19,03,12,13.60
2017,08,19,03,13,13.60
2017,08,19,03,14,13.60
2017,08,19,03,15,13.60
2017,08,19,03,16,13.60
2017,08,19,03,17,13.60
2017,08,19,03,18,13.60
2017,08,19,03,19,13.60
2017,08,19,03,20,13.60
2017,08,19,03,21,13.60
2017,08,19,03,22,13.60
2017,08,19,03,23,13.60
2017,08,19,03,24,13.60
2017,08,19,03,25,13.60
2017,08,19,03,26,13.60
2017,08,19,03,27,13.60
2017,08,19,03,28,13.60
2017,08,19,03,29,13.60
2017,08,19,03,30,13.60
2017,08,19,03,31,13.60
2017,08,19,03,32,13.60
2017,08,19,03,33,13.60
2017,08,19,03,34,13.60
2017,08,19,03,35,13.60
2017,08,19,03,36,13.60
2017,08,19,03,37,13.60
2017,08,19,03,38,13.60
2017,08,19,03,39,13.60
2017,08,19,03,40,13.60
2017,08,19,03,41,13.60
2017,08,19,03,42,13.60
2017,08,19,03,43,13.60
2017,08,19,03,44,13.60
2017,08,19,03,45,13.60
2017,08,19,03,46,13.60
2017,08,19,03,47,13.60
2017,08,19,03,48,13.60
2017,08,19,03,49,13.60
2017,08,19,03,50,13.60
2017,08,19,03,51,13.60
2017,08,19,03,52,13.60
2017,08,19,03,53,13.60
2017,08,19,03,54,13.60
2017,08,19,03,55,13.60
2017,08,19,03,56,13.60
2017,08,19,03,57,13.60
2017,08,19,03,58,13.60
2017,08,19,03,59,13.60
2017,08,19,04,00,13.60
2017,08,19,04,01,13.60
2017,08,19,04,02,13.60
2017,08,19,04,03,13.60
2017,08,19,04,04,13.60
2017,08,19,04,05,13.60
2017,08,19,04,06,13.60
2017,08,19,04,07,13.60
2017,08,19,04,08,13.60
2017,08,19,04,09,13.60
2017,08,19,04,10,13.60
2017,08,19,04,11,13.60
2017,08,19,04,12,13.60
2017,08,19,04,13,13.60
2017,08,19,04,14,13.60
2017,08,19,04,15,13.60
2017,08,19,04,16,13.60
2017,08,19,04,17,13.60
2017,08,19,04,18,13.60
2017,08,19,04,19,13.60
2017,08,19,04,20,13.60
2017,08,19,04,21,13.60
2017,08,19,04,22,13.60
2017,08,19,04,23,13.50
2017,08,19,04,24,13.60
2017,08,19,04,25,13.50
2017,08,19,04,26,13.60
2017,08,19,04,27,13.50
2017,08,19,04,28,13.50
2017,08,19,04,29,13.50
2017,08,19,04,30,13.50
2017,08,19,04,31,13.50
2017,08,19,04,32,13.50
2017,08,19,04,33,13.50
2017,08,19,04,34,13.60
2017,08,19,04,35,13.60
2017,08,19,04,36,13.60
2017,08,19,04,37,13.50
2017,08,19,04,38,13.50
2017,08,19,04,39,13.60
2017,08,19,04,40,13.60
2017,08,19,04,41,13.50
2017,08,19,04,42,13.60
2017,08,19,04,43,13.60
2017,08,19,04,44,13.60
2017,08,19,04,45,13.50
2017,08,19,04,46,13.50
2017,08,19,04,47,13.50
2017,08,19,04,48,13.50
2017,08,19,04,49,13.50
2017,08,19,04,50,13.50
2017,08,19,04,51,13.50
2017,08,19,04,52,13.50
2017,08,19,04,53,13.50
2017,08,19,04,54,13.50
2017,08,19,04,55,13.50
2017,08,19,04,56,13.50
2017,08,19,04,57,13.50
2017,08,19,04,58,13.50
2017,08,19,04,59,13.50
2017,08,19,05,00,13.50
2017,08,19,05,01,13.50
2017,08,19,05,02,13.50
2017,08,19,05,03,13.50
2017,08,19,05,04,13.50
2017,08,19,05,05,13.50
2017,08,19,05,06,13.40
2017,08,19,05,07,13.40
2017,08,19,05,08,13.50
2017,08,19,05,09,13.50
2017,08,19,05,10,13.50
2017,08,19,05,11,13.40
2017,08,19,05,12,13.40
2017,08,19,05,13,13.40
2017,08,19,05,14,13.40
2017,08,19,05,15,13.40
2017,08,19,05,16,13.40
2017,08,19,05,17,13.40
2017,08,19,05,18,13.40
2017,08,19,05,19,13.40
2017,08,19,05,20,13.40
2017,08,19,05,21,13.40
2017,08,19,05,22,13.40
2017,08,19,05,23,13.40
2017,08,19,05,24,13.40
2017,08,19,05,25,13.40
2017,08,19,05,26,13.40
2017,08,19,05,27,13.40
2017,08,19,05,28,13.40
2017,08,19,05,29,13.50
2017,08,19,05,30,13.40
2017,08,19,05,31,13.40
2017,08,19,05,32,13.50
2017,08,19,05,33,13.40
2017,08,19,05,34,13.50
2017,08,19,05,35,13.40
2017,08,19,05,36,13.50
2017,08,19,05,37,13.50
2017,08,19,05,38,13.40
2017,08,19,05,39,13.40
2017,08,19,05,40,13.40
2017,08,19,05,41,13.40
2017,08,19,05,42,13.40
2017,08,19,05,43,13.40
2017,08,19,05,44,13.40
2017,08,19,05,45,13.40
2017,08,19,05,46,13.40
2017,08,19,05,47,13.40
2017,08,19,05,48,13.40
2017,08,19,05,49,13.40
2017,08,19,05,50,13.40
2017,08,19,05,51,13.40
2017,08,19,05,52,13.40
2017,08,19,05,53,13.40
2017,08,19,05,54,13.40
2017,08,19,05,55,13.30
2017,08,19,05,56,13.30
2017,08,19,05,57,13.30
2017,08,19,05,58,13.30
2017,08,19,05,59,13.20
2017,08,19,06,00,13.20
2017,08,19,06,01,13.20
2017,08,19,06,02,13.20
2017,08,19,06,03,13.10
2017,08,19,06,04,13.10
2017,08,19,06,05,13.10
2017,08,19,06,06,13.00
2017,08,19,06,07,13.00
2017,08,19,06,08,12.90
2017,08,19,06,09,12.90
2017,08,19,06,10,12.90
2017,08,19,06,11,12.80
2017,08,19,06,12,12.80
2017,08,19,06,13,12.80
2017,08,19,06,14,12.80
2017,08,19,06,15,12.70
2017,08,19,06,16,12.70
2017,08,19,06,17,12.70
2017,08,19,06,18,12.60
2017,08,19,06,19,12.60
2017,08,19,06,20,12.60
2017,08,19,06,21,12.60
2017,08,19,06,22,12.60
2017,08,19,06,23,12.60
2017,08,19,06,24,12.60
2017,08,19,06,25,12.60
2017,08,19,06,26,12.50
2017,08,19,06,27,12.50
2017,08,19,06,28,12.50
2017,08,19,06,29,12.50
2017,08,19,06,30,12.50
2017,08,19,06,31,12.40
2017,08,19,06,32,12.40
2017,08,19,06,33,12.40
2017,08,19,06,34,12.40
2017,08,19,06,35,12.40
2017,08,19,06,36,12.30
2017,08,19,06,37,12.30
2017,08,19,06,38,12.30
2017,08,19,06,39,12.30
2017,08,19,06,40,12.20
2017,08,19,06,41,12.20
2017,08,19,06,42,12.20
2017,08,19,06,43,12.20
2017,08,19,06,44,12.20
2017,08,19,06,45,12.10
2017,08,19,06,46,12.10
2017,08,19,06,47,12.10
2017,08,19,06,48,12.10
2017,08,19,06,49,12.00
2017,08,19,06,50,12.00
2017,08,19,06,51,12.00
2017,08,19,06,52,12.00
2017,08,19,06,53,12.00
2017,08,19,06,54,11.90
2017,08,19,06,55,11.90
2017,08,19,06,56,11.90
2017,08,19,06,57,11.90
2017,08,19,06,58,11.90
2017,08,19,06,59,11.90
2017,08,19,07,00,11.90
2017,08,19,07,01,11.90
2017,08,19,07,02,11.90
2017,08,19,07,03,11.90
2017,08,19,07,04,11.90
2017,08,19,07,05,11.90
2017,08,19,07,06,11.90
2017,08,19,07,07,11.90
2017,08,19,07,08,11.90
2017,08,19,07,09,11.90
2017,08,19,07,10,11.90
2017,08,19,07,11,11.90
2017,08,19,07,12,11.90
2017,08,19,07,13,11.90
2017,08,19,07,14,11.90
2017,08,19,07,15,11.90
2017,08,19,07,16,11.90
2017,08,19,07,17,12.00
2017,08,19,07,18,12.00
2017,08,19,07,19,12.00
2017,08,19,07,20,12.00
2017,08,19,07,21,12.00
2017,08,19,07,22,12.00
2017,08,19,07,23,12.00
2017,08,19,07,24,12.10
2017,08,19,07,25,12.10
2017,08,19,07,26,12.10
2017,08,19,07,27,12.10
2017,08,19,07,28,12.10
2017,08,19,07,29,12.10
2017,08,19,07,30,12.10
2017,08,19,07,31,12.10
2017,08,19,07,32,12.20
2017,08,19,07,33,12.20
2017,08,19,07,34,12.20
2017,08,19,07,35,12.20
2017,08,19,07,36,12.30
2017,08,19,07,37,12.30
2017,08,19,07,38,12.30
2017,08,19,07,39,12.30
2017,08,19,07,40,12.30
2017,08,19,07,41,12.30
2017,08,19,07,42,12.40
2017,08,19,07,43,12.40
2017,08,19,07,44,12.40
2017,08,19,07,45,12.40
2017,08,19,07,46,12.40
2017,08,19,07,47,12.50
2017,08,19,07,48,12.50
2017,08,19,07,49,12.50
2017,08,19,07,50,12.60
2017,08,19,07,51,12.60
2017,08,19,07,52,12.60
2017,08,19,07,53,12.70
2017,08,19,07,54,12.70
2017,08,19,07,55,12.80
2017,08,19,07,56,12.80
2017,08,19,07,57,12.90
2017,08,19,07,58,12.90
2017,08,19,07,59,13.00
2017,08,19,08,00,13.00
2017,08,19,08,01,13.10
2017,08,19,08,02,13.10
2017,08,19,08,03,13.10
2017,08,19,08,04,13.20
2017,08,19,08,05,13.20
2017,08,19,08,06,13.30
2017,08,19,08,07,13.30
2017,08,19,08,08,13.30
2017,08,19,08,09,13.30
2017,08,19,08,10,13.40
2017,08,19,08,11,13.40
2017,08,19,08,12,13.50
2017,08,19,08,13,13.50
2017,08,19,08,14,13.60
2017,08,19,08,15,13.60
2017,08,19,08,16,13.70
2017,08,19,08,17,13.70
2017,08,19,08,18,13.80
2017,08,19,08,19,13.80
2017,08,19,08,20,13.90
2017,08,19,08,21,14.00
2017,08,19,08,22,14.10
2017,08,19,08,23,14.20
2017,08,19,08,24,14.30
2017,08,19,08,25,14.30
2017,08,19,08,26,14.40
2017,08,19,08,27,14.50
2017,08,19,08,28,14.60
2017,08,19,08,29,14.60
2017,08,19,08,30,14.70
2017,08,19,08,31,14.70
2017,08,19,08,32,14.80
2017,08,19,08,33,14.80
2017,08,19,08,34,14.90
2017,08,19,08,35,15.00
2017,08,19,08,36,15.00
2017,08,19,08,37,15.00
2017,08,19,08,38,15.10
2017,08,19,08,39,15.10
2017,08,19,08,40,15.20
2017,08,19,08,41,15.30
2017,08,19,08,42,15.30
2017,08,19,08,43,15.30
2017,08,19,08,44,15.40
2017,08,19,08,45,15.40
2017,08,19,08,46,15.40
2017,08,19,08,47,15.40
2017,08,19,08,48,15.50
2017,08,19,08,49,15.60
2017,08,19,08,50,15.60
2017,08,19,08,51,15.60
2017,08,19,08,52,15.70
2017,08,19,08,53,15.70
2017,08,19,08,54,15.70
2017,08,19,08,55,15.70
2017,08,19,08,56,15.70
2017,08,19,08,57,15.70
2017,08,19,08,58,15.70
2017,08,19,08,59,15.70
2017,08,19,09,00,15.80
2017,08,19,09,01,15.80
2017,08,19,09,02,15.90
2017,08,19,09,03,15.80
2017,08,19,09,04,15.90
2017,08,19,09,05,15.80
2017,08,19,09,06,15.80
2017,08,19,09,07,15.70
2017,08,19,09,08,15.60
2017,08,19,09,09,15.60
2017,08,19,09,10,15.60
2017,08,19,09,11,15.60
2017,08,19,09,12,15.60
2017,08,19,09,13,15.60
2017,08,19,09,14,15.60
2017,08,19,09,15,15.70
2017,08,19,09,16,15.70
2017,08,19,09,17,15.80
2017,08,19,09,18,15.90
2017,08,19,09,19,16.00
2017,08,19,09,20,16.00
2017,08,19,09,21,16.10
2017,08,19,09,22,16.10
2017,08,19,09,23,16.20
2017,08,19,09,24,16.20
2017,08,19,09,25,16.20
2017,08,19,09,26,16.20
2017,08,19,09,27,16.20
2017,08,19,09,28,16.20
2017,08,19,09,29,16.30
2017,08,19,09,30,16.40
2017,08,19,09,31,16.60
2017,08,19,09,32,16.70
2017,08,19,09,33,16.70
2017,08,19,09,34,16.60
2017,08,19,09,35,16.50
2017,08,19,09,36,16.40
2017,08,19,09,37,16.40
2017,08,19,09,38,16.30
2017,08,19,09,39,16.30
2017,08,19,09,40,16.30
2017,08,19,09,41,16.30
2017,08,19,09,42,16.30
2017,08,19,09,43,16.30
2017,08,19,09,44,16.40
2017,08,19,09,45,16.40
2017,08,19,09,46,16.40
2017,08,19,09,47,16.40
2017,08,19,09,48,16.40
2017,08,19,09,49,16.30
2017,08,19,09,50,16.40
2017,08,19,09,51,16.40
2017,08,19,09,52,16.40
2017,08,19,09,53,16.40
2017,08,19,09,54,16.50
2017,08,19,09,55,16.40
2017,08,19,09,56,16.40
2017,08,19,09,57,16.40
2017,08,19,09,58,16.40
2017,08,19,09,59,16.40
2017,08,19,10,00,16.40
2017,08,19,10,01,16.40
2017,08,19,10,02,16.40
2017,08,19,10,03,16.50
2017,08,19,10,04,16.50
2017,08,19,10,05,16.60
2017,08,19,10,06,16.60
2017,08,19,10,07,16.70
2017,08,19,10,08,16.70
2017,08,19,10,09,16.70
2017,08,19,10,10,16.60
2017,08,19,10,11,16.60
2017,08,19,10,12,16.70
2017,08,19,10,13,16.70
2017,08,19,10,14,16.70
2017,08,19,10,15,16.70
2017,08,19,10,16,16.70
2017,08,19,10,17,16.70
2017,08,19,10,18,16.70
2017,08,19,10,19,16.70
2017,08,19,10,20,16.70
2017,08,19,10,21,16.60
2017,08,19,10,22,16.60
2017,08,19,10,23,16.60
2017,08,19,10,24,16.60
2017,08,19,10,25,16.60
2017,08,19,10,26,16.60
2017,08,19,10,27,16.60
2017,08,19,10,28,16.70
2017,08,19,10,29,16.70
2017,08,19,10,30,16.70
2017,08,19,10,31,16.70
2017,08,19,10,32,16.80
2017,08,19,10,33,16.80
2017,08,19,10,34,16.90
2017,08,19,10,35,17.00
2017,08,19,10,36,17.00
2017,08,19,10,37,16.90
2017,08,19,10,38,16.80
2017,08,19,10,39,16.90
2017,08,19,10,40,17.00
2017,08,19,10,41,17.10
2017,08,19,10,42,17.20
2017,08,19,10,43,17.30
2017,08,19,10,44,17.30
2017,08,19,10,45,17.30
2017,08,19,10,46,17.40
2017,08,19,10,47,17.50
2017,08,19,10,48,17.60
2017,08,19,10,49,17.70
2017,08,19,10,50,17.80
2017,08,19,10,51,17.80
2017,08,19,10,52,17.80
2017,08,19,10,53,17.90
2017,08,19,10,54,17.90
2017,08,19,10,55,18.00
2017,08,19,10,56,18.10
2017,08,19,10,57,18.10
2017,08,19,10,58,18.10
2017,08,19,10,59,18.00
2017,08,19,11,00,17.90
2017,08,19,11,01,17.80
2017,08,19,11,02,17.70
2017,08,19,11,03,17.70
2017,08,19,11,04,17.70
2017,08,19,11,05,17.70
2017,08,19,11,06,17.60
2017,08,19,11,07,17.50
2017,08,19,11,08,17.40
2017,08,19,11,09,17.40
2017,08,19,11,10,17.30
2017,08,19,11,11,17.30
2017,08,19,11,12,17.40
2017,08,19,11,13,17.40
2017,08,19,11,14,17.40
2017,08,19,11,15,17.40
2017,08,19,11,16,17.40
2017,08,19,11,17,17.50
2017,08,19,11,18,17.50
2017,08,19,11,19,17.60
2017,08,19,11,20,17.60
2017,08,19,11,21,17.60
2017,08,19,11,22,17.60
2017,08,19,11,23,17.60
2017,08,19,11,24,17.60
2017,08,19,11,25,17.70
2017,08,19,11,26,17.70
2017,08,19,11,27,17.80
2017,08,19,11,28,17.70
2017,08,19,11,29,17.70
2017,08,19,11,30,17.60
2017,08,19,11,31,17.70
2017,08,19,11,32,17.70
2017,08,19,11,33,17.80
2017,08,19,11,34,17.80
2017,08,19,11,35,17.80
2017,08,19,11,36,17.80
2017,08,19,11,37,17.80
2017,08,19,11,38,17.80
2017,08,19,11,39,17.90
2017,08,19,11,40,18.00
2017,08,19,11,41,18.00
2017,08,19,11,42,18.00
2017,08,19,11,43,18.00
2017,08,19,11,44,18.10
2017,08,19,11,45,18.20
2017,08,19,11,46,18.20
2017,08,19,11,47,18.20
2017,08,19,11,48,18.20
2017,08,19,11,49,18.20
2017,08,19,11,50,18.30
2017,08,19,11,51,18.30
2017,08,19,11,52,18.30
2017,08,19,11,53,18.40
2017,08,19,11,54,18.40
2017,08,19,11,55,18.50
2017,08,19,11,56,18.60
2017,08,19,11,57,18.70
2017,08,19,11,58,18.80
2017,08,19,11,59,18.80
2017,08,19,12,00,18.80
2017,08,19,12,01,18.70
2017,08,19,12,02,18.70
2017,08,19,12,03,18.70
2017,08,19,12,04,18.80
2017,08,19,12,05,18.80
2017,08,19,12,06,18.90
2017,08,19,12,07,18.90
2017,08,19,12,08,19.00
2017,08,19,12,09,19.00
2017,08,19,12,10,19.10
2017,08,19,12,11,19.00
2017,08,19,12,12,18.90
2017,08,19,12,13,18.90
2017,08,19,12,14,18.90
2017,08,19,12,15,18.80
2017,08,19,12,16,18.80
2017,08,19,12,17,18.90
2017,08,19,12,18,18.90
2017,08,19,12,19,18.90
2017,08,19,12,20,18.90
2017,08,19,12,21,18.90
2017,08,19,12,22,18.90
2017,08,19,12,23,18.90
2017,08,19,12,24,18.80
2017,08,19,12,25,18.80
2017,08,19,12,26,18.80
2017,08,19,12,27,18.80
2017,08,19,12,28,18.80
2017,08,19,12,29,18.80
2017,08,19,12,30,18.80
2017,08,19,12,31,18.80
2017,08,19,12,32,18.70
2017,08,19,12,33,18.70
2017,08,19,12,34,18.60
2017,08,19,12,35,18.50
2017,08,19,12,36,18.50
2017,08,19,12,37,18.50
2017,08,19,12,38,18.50
2017,08,19,12,39,18.60
2017,08,19,12,40,18.60
2017,08,19,12,41,18.70
2017,08,19,12,42,18.80
2017,08,19,12,43,18.80
2017,08,19,12,44,18.90
2017,08,19,12,45,18.90
2017,08,19,12,46,18.90
2017,08,19,12,47,18.90
2017,08,19,12,48,18.90
2017,08,19,12,49,18.90
2017,08,19,12,50,18.90
2017,08,19,12,51,18.80
2017,08,19,12,52,18.90
2017,08,19,12,53,18.90
2017,08,19,12,54,18.90
2017,08,19,12,55,18.90
2017,08,19,12,56,18.90
2017,08,19,12,57,18.90
2017,08,19,12,58,18.90
2017,08,19,12,59,18.90
2017,08,19,13,00,18.90
2017,08,19,13,01,18.90
2017,08,19,13,02,18.90
2017,08,19,13,03,18.90
2017,08,19,13,04,19.00
2017,08,19,13,05,19.00
2017,08,19,13,06,19.00
2017,08,19,13,07,19.10
2017,08,19,13,08,19.10
2017,08,19,13,09,19.10
2017,08,19,13,10,19.20
2017,08,19,13,11,19.10
2017,08,19,13,12,19.10
2017,08,19,13,13,19.00
2017,08,19,13,14,19.00
2017,08,19,13,15,19.10
2017,08,19,13,16,19.20
2017,08,19,13,17,19.20
2017,08,19,13,18,19.20
2017,08,19,13,19,19.30
2017,08,19,13,20,19.30
2017,08,19,13,21,19.40
2017,08,19,13,22,19.40
2017,08,19,13,23,19.40
2017,08,19,13,24,19.50
2017,08,19,13,25,19.50
2017,08,19,13,26,19.50
2017,08,19,13,27,19.60
2017,08,19,13,28,19.70
2017,08,19,13,29,19.70
2017,08,19,13,30,19.80
2017,08,19,13,31,19.70
2017,08,19,13,32,19.70
2017,08,19,13,33,19.70
2017,08,19,13,34,19.60
2017,08,19,13,35,19.60
2017,08,19,13,36,19.50
2017,08,19,13,37,19.50
2017,08,19,13,38,19.60
2017,08,19,13,39,19.60
2017,08,19,13,40,19.70
2017,08,19,13,41,19.70
2017,08,19,13,42,19.70
2017,08,19,13,43,19.80
2017,08,19,13,44,19.80
2017,08,19,13,45,19.80
2017,08,19,13,46,19.80
2017,08,19,13,47,19.80
2017,08,19,13,48,19.80
2017,08,19,13,49,19.80
2017,08,19,13,50,19.80
2017,08,19,13,51,19.80
2017,08,19,13,52,19.80
2017,08,19,13,53,19.80
2017,08,19,13,54,19.80
2017,08,19,13,55,19.70
2017,08,19,13,56,19.70
2017,08,19,13,57,19.70
2017,08,19,13,58,19.70
2017,08,19,13,59,19.70
2017,08,19,14,00,19.70
2017,08,19,14,01,19.70
2017,08,19,14,02,19.70
2017,08,19,14,03,19.60
2017,08,19,14,04,19.60
2017,08,19,14,05,19.60
2017,08,19,14,06,19.60
2017,08,19,14,07,19.50
2017,08,19,14,08,19.30
2017,08,19,14,09,19.30
2017,08,19,14,10,19.20
2017,08,19,14,11,19.10
2017,08,19,14,12,19.00
2017,08,19,14,13,18.80
2017,08,19,14,14,18.70
2017,08,19,14,15,18.70
2017,08,19,14,16,18.60
2017,08,19,14,17,18.50
2017,08,19,14,18,18.50
2017,08,19,14,19,18.40
2017,08,19,14,20,18.30
2017,08,19,14,21,18.30
2017,08,19,14,22,18.20
2017,08,19,14,23,18.10
2017,08,19,14,24,18.00
2017,08,19,14,25,18.00
2017,08,19,14,26,17.90
2017,08,19,14,27,17.90
2017,08,19,14,28,17.90
2017,08,19,14,29,18.00
2017,08,19,14,30,18.00
2017,08,19,14,31,18.10
2017,08,19,14,32,18.20
2017,08,19,14,33,18.20
2017,08,19,14,34,18.30
2017,08,19,14,35,18.40
2017,08,19,14,36,18.40
2017,08,19,14,37,18.40
2017,08,19,14,38,18.40
2017,08,19,14,39,18.50
2017,08,19,14,40,18.50
2017,08,19,14,41,18.40
2017,08,19,14,42,18.30
2017,08,19,14,43,18.40
2017,08,19,14,44,18.50
2017,08,19,14,45,18.60
2017,08,19,14,46,18.70
2017,08,19,14,47,18.90
2017,08,19,14,48,19.00
2017,08,19,14,49,19.00
2017,08,19,14,50,19.10
2017,08,19,14,51,19.10
2017,08,19,14,52,19.20
2017,08,19,14,53,19.20
2017,08,19,14,54,19.20
2017,08,19,14,55,19.10
2017,08,19,14,56,19.10
2017,08,19,14,57,19.00
2017,08,19,14,58,19.00
2017,08,19,14,59,19.00
2017,08,19,15,00,19.00
2017,08,19,15,01,18.90
2017,08,19,15,02,19.00
2017,08,19,15,03,18.90
2017,08,19,15,04,18.90
2017,08,19,15,05,18.90
2017,08,19,15,06,18.90
2017,08,19,15,07,18.90
2017,08,19,15,08,18.90
2017,08,19,15,09,18.90
2017,08,19,15,10,18.90
2017,08,19,15,11,18.90
2017,08,19,15,12,18.90
2017,08,19,15,13,18.90
2017,08,19,15,14,18.80
2017,08,19,15,15,18.90
2017,08,19,15,16,18.90
2017,08,19,15,17,18.90
2017,08,19,15,18,19.00
2017,08,19,15,19,19.00
2017,08,19,15,20,19.10
2017,08,19,15,21,19.10
2017,08,19,15,22,19.20
2017,08,19,15,23,19.20
2017,08,19,15,24,19.30
2017,08,19,15,25,19.30
2017,08,19,15,26,19.40
2017,08,19,15,27,19.40
2017,08,19,15,28,19.30
2017,08,19,15,29,19.30
2017,08,19,15,30,19.30
2017,08,19,15,31,19.30
2017,08,19,15,32,19.30
2017,08,19,15,33,19.30
2017,08,19,15,34,19.40
2017,08,19,15,35,19.50
2017,08,19,15,36,19.50
2017,08,19,15,37,19.50
2017,08,19,15,38,19.60
2017,08,19,15,39,19.60
2017,08,19,15,40,19.60
2017,08,19,15,41,19.60
2017,08,19,15,42,19.60
2017,08,19,15,43,19.60
2017,08,19,15,44,19.50
2017,08,19,15,45,19.40
2017,08,19,15,46,19.40
2017,08,19,15,47,19.50
2017,08,19,15,48,19.60
2017,08,19,15,49,19.70
2017,08,19,15,50,19.90
2017,08,19,15,51,20.10
2017,08,19,15,52,20.30
2017,08,19,15,53,20.50
2017,08,19,15,54,20.70
2017,08,19,15,55,20.90
2017,08,19,15,56,21.20
2017,08,19,15,57,21.30
2017,08,19,15,58,21.50
2017,08,19,15,59,21.80
2017,08,19,16,00,21.90
2017,08,19,16,01,21.90
2017,08,19,16,02,21.90
2017,08,19,16,03,21.90
2017,08,19,16,04,21.80
2017,08,19,16,05,21.80
2017,08,19,16,06,21.80
2017,08,19,16,07,21.80
2017,08,19,16,08,21.80
2017,08,19,16,09,21.70
2017,08,19,16,10,21.60
2017,08,19,16,11,21.70
2017,08,19,16,12,21.70
2017,08,19,16,13,21.80
2017,08,19,16,14,21.70
2017,08,19,16,15,21.70
2017,08,19,16,16,21.80
2017,08,19,16,17,21.80
2017,08,19,16,18,21.80
2017,08,19,16,19,21.90
2017,08,19,16,20,21.90
2017,08,19,16,21,22.00
2017,08,19,16,22,21.90
2017,08,19,16,23,21.80
2017,08,19,16,24,21.60
2017,08,19,16,25,21.60
2017,08,19,16,26,21.50
2017,08,19,16,27,21.50
2017,08,19,16,28,21.30
2017,08,19,16,29,21.30
2017,08,19,16,30,21.20
2017,08,19,16,31,21.20
2017,08,19,16,32,21.10
2017,08,19,16,33,21.10
2017,08,19,16,34,20.90
2017,08,19,16,35,20.90
2017,08,19,16,36,20.90
2017,08,19,16,37,20.80
2017,08,19,16,38,20.80
2017,08,19,16,39,20.70
2017,08,19,16,40,20.80
2017,08,19,16,41,20.80
2017,08,19,16,42,20.80
2017,08,19,16,43,20.80
2017,08,19,16,44,20.80
2017,08,19,16,45,20.70
2017,08,19,16,46,20.70
2017,08,19,16,47,20.70
2017,08,19,16,48,20.60
2017,08,19,16,49,20.60
2017,08,19,16,50,20.60
2017,08,19,16,51,20.60
2017,08,19,16,52,20.60
2017,08,19,16,53,20.60
2017,08,19,16,54,20.70
2017,08,19,16,55,20.70
2017,08,19,16,56,20.80
2017,08,19,16,57,20.80
2017,08,19,16,58,20.90
2017,08,19,16,59,20.90
2017,08,19,17,00,21.00
2017,08,19,17,01,21.00
2017,08,19,17,02,20.90
2017,08,19,17,03,20.90
2017,08,19,17,04,20.90
2017,08,19,17,05,20.80
2017,08,19,17,06,20.70
2017,08,19,17,07,20.70
2017,08,19,17,08,20.60
2017,08,19,17,09,20.60
2017,08,19,17,10,20.60
2017,08,19,17,11,20.60
2017,08,19,17,12,20.60
2017,08,19,17,13,20.50
2017,08,19,17,14,20.40
2017,08,19,17,15,20.30
2017,08,19,17,16,20.30
2017,08,19,17,17,20.30
2017,08,19,17,18,20.40
2017,08,19,17,19,20.50